Weather in Vichy

France     46°07′47″N   3°25′51″E
temp.,
°C
wind,
m/s
gust,
m/s
humid.,
%
clouds,
%
prec.,
mm/h
press.,
hPa
HPBL,
m
25 may, wed
wed2523:00+10w119292 0.4 101527
02:00+7ssw119627 0.4 101713
05:00+6ssw11965 0.0 101811
08:00+9wsw11930 0.0 1019138
11:00+15wnw235915 0.0 10191147
14:00+20wnw334192 0.0 10192057
17:00+21wnw443952 0.0 10192106
20:00+18nw3652100 0.0 1020605
26 may, thu
thu2623:00+11nnw00790 0.0 102410
02:00+9sw11870 0.0 102511
05:00+8s11951 0.0 102619
08:00+11sw128424 0.0 1026217
11:00+17wnw226375 0.0 10261091
14:00+18nw1259100 0.1 10261121
17:00+19nnw345850 0.0 10251262
20:00+18n246315 0.0 1025425
27 may, fri
fri2723:00+12nne01900 0.0 102610
02:00+10sse119622 0.0 102611
05:00+9s11979 0.0 102511
08:00+12sw11885 0.0 1026134
11:00+20nnw23617 0.0 1025934
14:00+24n34425 0.0 10231855
17:00+24nnw44365 0.0 10221927
20:00+20n36555 0.0 1022647
28 may, sat
sat2823:00+14nne2493100 0.0 1024100
02:00+11n1298100 0.0 102338
05:00+9n129931 0.0 102329
08:00+11nne24903 0.0 1023226
11:00+17nne35425 0.0 10211252
14:00+20nne46275 0.0 10191799
17:00+21n56300 0.0 10182064
20:00+18nne48430 0.0 10171293
29 may, sun
sun2923:00+13nne410570 0.0 1019553
02:00+7n23820 0.0 101953
05:00+5nnw11940 0.0 101914
08:00+8nnw12772 0.0 1018209
11:00+15n34455 0.0 10161294
14:00+19n35315 0.0 10141858
17:00+20n45295 0.0 10132114
20:00+17n47425 0.0 1013931